EWG72D EDDH-LOWS

Flight info

Callsign EWG72D
Flight time 1h 3m
Altitude 37000
Route AMLUH2G AMLUH M852 DENIX DCT ZUCKA DCT SODRO T703 ARMUT/N0443F310 T703 ARBAX/N0432F300 T108 OSTES T700 BADIT BADIT2R
Aircraft A20N/M-SDE2E3FGHIRWXY/LB1

Departure

Time 2026-05-06 19:03
Airport Hamburg Helmut Schmidt Airport (EDDH)

Arrival

Time 2026-05-06 20:07
Airport Salzburg Airport (LOWS)
Time Latitude Longitude Altitude Speed Heading
2026-05-06 18:49 53.63207 10.00357 54 ft 0 kts 85°
2026-05-06 18:58 53.63207 10.00355 54 ft 2 kts 85°
2026-05-06 18:58 53.63206 10.00327 26 ft 2 kts 85°
2026-05-06 18:58 53.63204 10.00300 67 ft 2 kts 86°
2026-05-06 18:58 53.63203 10.00273 54 ft 2 kts 87°
2026-05-06 18:59 53.63203 10.00246 54 ft 2 kts 89°
2026-05-06 18:59 53.63203 10.00218 54 ft 2 kts 95°
2026-05-06 18:59 53.63207 10.00192 53 ft 2 kts 124°
2026-05-06 18:59 53.63217 10.00180 47 ft 1 kts 172°
2026-05-06 19:00 53.63219 10.00180 54 ft 0 kts 175°
2026-05-06 19:00 53.63218 10.00180 54 ft 0 kts 176°
2026-05-06 19:00 53.63214 10.00180 54 ft 4 kts 176°
2026-05-06 19:00 53.63129 10.00191 53 ft 19 kts 175°
2026-05-06 19:01 53.63036 10.00147 51 ft 12 kts 213°
2026-05-06 19:01 53.62960 10.00066 52 ft 13 kts 209°
2026-05-06 19:01 53.62914 9.99973 51 ft 9 kts 245°
2026-05-06 19:01 53.62898 9.99917 52 ft 0 kts 243°
2026-05-06 19:02 53.62887 9.99879 52 ft 9 kts 243°
2026-05-06 19:02 53.62869 9.99751 49 ft 10 kts 298°
2026-05-06 19:02 53.62890 9.99724 50 ft 0 kts 333°
2026-05-06 19:03 53.63066 9.99577 52 ft 70 kts 334°
2026-05-06 19:03 53.63754 9.99000 54 ft 146 kts 335°
2026-05-06 19:03 53.64661 9.98168 742 ft 153 kts 335°
2026-05-06 19:03 53.65625 9.97267 1644 ft 160 kts 338°
2026-05-06 19:04 53.66632 9.96473 2573 ft 168 kts 343°
2026-05-06 19:04 53.67771 9.95815 3577 ft 171 kts 351°
2026-05-06 19:04 53.68947 9.95377 4477 ft 180 kts 349°
2026-05-06 19:04 53.70283 9.94959 4914 ft 215 kts 358°
2026-05-06 19:05 53.71908 9.95078 5017 ft 247 kts 19°
2026-05-06 19:05 53.73265 9.96812 4926 ft 251 kts 59°
2026-05-06 19:05 53.73860 9.99559 5104 ft 257 kts 74°
2026-05-06 19:05 53.74205 10.02574 6000 ft 266 kts 89°
2026-05-06 19:06 53.73697 10.05495 7226 ft 270 kts 115°
2026-05-06 19:06 53.72733 10.08258 8394 ft 275 kts 120°
2026-05-06 19:06 53.71713 10.11020 9314 ft 280 kts 120°
2026-05-06 19:06 53.70694 10.13856 9860 ft 284 kts 119°
2026-05-06 19:07 53.69659 10.16824 10409 ft 306 kts 118°
2026-05-06 19:07 53.68561 10.20072 11027 ft 328 kts 121°
2026-05-06 19:07 53.66925 10.22773 11970 ft 340 kts 151°
2026-05-06 19:07 53.64638 10.23835 13134 ft 343 kts 173°
2026-05-06 19:08 53.62253 10.24260 14290 ft 345 kts 174°
2026-05-06 19:08 53.59883 10.24827 15239 ft 351 kts 171°
2026-05-06 19:08 53.57454 10.25616 16143 ft 358 kts 169°
2026-05-06 19:08 53.55018 10.26553 17077 ft 363 kts 168°
2026-05-06 19:09 53.52525 10.27595 17989 ft 369 kts 167°
2026-05-06 19:09 53.50026 10.28685 18782 ft 374 kts 167°
2026-05-06 19:09 53.47516 10.29803 19558 ft 379 kts 167°
2026-05-06 19:09 53.44953 10.30957 20332 ft 384 kts 166°
2026-05-06 19:10 53.43214 10.31737 20845 ft 387 kts 167°
2026-05-06 19:10 53.41013 10.32682 21488 ft 391 kts 167°
2026-05-06 19:10 53.38380 10.33786 22244 ft 394 kts 168°
2026-05-06 19:10 53.35709 10.34913 23042 ft 397 kts 167°
2026-05-06 19:11 53.33016 10.36072 23630 ft 402 kts 167°
2026-05-06 19:11 53.30298 10.37264 23850 ft 403 kts 167°
2026-05-06 19:11 53.27581 10.38471 23874 ft 404 kts 167°
2026-05-06 19:11 53.24916 10.39662 23990 ft 404 kts 167°
2026-05-06 19:12 53.24112 10.40021 24112 ft 405 kts 167°
2026-05-06 19:12 53.21375 10.41244 24703 ft 408 kts 167°
2026-05-06 19:12 53.18622 10.42474 25291 ft 411 kts 167°
2026-05-06 19:12 53.15853 10.43709 25831 ft 414 kts 167°
2026-05-06 19:13 53.13053 10.44944 26367 ft 418 kts 168°
2026-05-06 19:13 53.10207 10.46021 26876 ft 421 kts 170°
2026-05-06 19:13 53.07320 10.46962 27378 ft 424 kts 171°
2026-05-06 19:13 53.04446 10.47829 27864 ft 427 kts 171°
2026-05-06 19:14 53.01518 10.48691 28334 ft 430 kts 171°
2026-05-06 19:14 52.98554 10.49567 28807 ft 433 kts 171°
2026-05-06 19:14 52.95715 10.50418 29251 ft 436 kts 171°
2026-05-06 19:14 52.92716 10.51330 29691 ft 440 kts 171°
2026-05-06 19:15 52.89688 10.52259 30097 ft 443 kts 171°
2026-05-06 19:15 52.86634 10.53201 30564 ft 443 kts 171°
2026-05-06 19:15 52.83629 10.54133 31150 ft 440 kts 171°
2026-05-06 19:15 52.80679 10.55052 31733 ft 436 kts 171°
2026-05-06 19:16 52.77714 10.55980 32278 ft 434 kts 172°
2026-05-06 19:16 52.74804 10.56891 32837 ft 431 kts 172°
2026-05-06 19:16 52.71861 10.57812 33375 ft 429 kts 172°
2026-05-06 19:16 52.68919 10.58730 33848 ft 428 kts 172°
2026-05-06 19:17 52.66004 10.59636 34226 ft 427 kts 172°
2026-05-06 19:17 52.63080 10.60543 34584 ft 427 kts 173°
2026-05-06 19:17 52.60154 10.61446 34905 ft 427 kts 173°
2026-05-06 19:17 52.57232 10.62345 35228 ft 427 kts 173°
2026-05-06 19:18 52.55291 10.62941 35446 ft 427 kts 173°
2026-05-06 19:18 52.53468 10.63500 35640 ft 427 kts 173°
2026-05-06 19:18 52.50589 10.64382 35976 ft 426 kts 173°
2026-05-06 19:18 52.47698 10.65266 36333 ft 425 kts 173°
2026-05-06 19:19 52.44794 10.66153 36641 ft 425 kts 173°
2026-05-06 19:19 52.41874 10.67043 36817 ft 428 kts 173°
2026-05-06 19:19 52.38934 10.67935 36826 ft 428 kts 173°
2026-05-06 19:20 52.33085 10.69705 36833 ft 427 kts 173°
2026-05-06 19:20 52.27265 10.71457 36819 ft 427 kts 173°
2026-05-06 19:21 52.21416 10.73212 36829 ft 427 kts 173°
2026-05-06 19:21 52.15556 10.74965 36823 ft 427 kts 173°
2026-05-06 19:22 52.09888 10.76656 36822 ft 427 kts 173°
2026-05-06 19:22 52.04088 10.78382 36821 ft 427 kts 173°
2026-05-06 19:23 51.98237 10.80120 36816 ft 426 kts 173°
2026-05-06 19:23 51.92400 10.81847 36812 ft 426 kts 173°
2026-05-06 19:24 51.86590 10.83563 36805 ft 425 kts 173°
2026-05-06 19:24 51.80810 10.85266 36807 ft 425 kts 173°
2026-05-06 19:25 51.76976 10.86526 36800 ft 427 kts 169°
2026-05-06 19:25 51.71568 10.89615 36804 ft 430 kts 162°
2026-05-06 19:26 51.66028 10.93514 36801 ft 431 kts 159°
2026-05-06 19:26 51.60580 10.97601 36799 ft 431 kts 159°
2026-05-06 19:27 51.55177 11.01670 36799 ft 431 kts 159°
2026-05-06 19:27 51.49755 11.05714 36794 ft 430 kts 159°
2026-05-06 19:28 51.44255 11.09774 36780 ft 440 kts 159°
2026-05-06 19:28 51.38656 11.13886 36796 ft 441 kts 159°
2026-05-06 19:29 51.35105 11.16495 36794 ft 440 kts 159°
2026-05-06 19:29 51.29516 11.20541 36786 ft 439 kts 163°
2026-05-06 19:30 51.23778 11.23849 36790 ft 437 kts 164°
2026-05-06 19:30 51.19941 11.26030 36789 ft 437 kts 164°
2026-05-06 19:31 51.14366 11.29280 36783 ft 437 kts 163°
2026-05-06 19:31 51.05826 11.34365 36778 ft 437 kts 163°
2026-05-06 19:32 51.00154 11.37748 36778 ft 437 kts 163°
2026-05-06 19:32 50.94466 11.41128 36782 ft 436 kts 163°
2026-05-06 19:33 50.88880 11.44436 36778 ft 435 kts 163°
2026-05-06 19:33 50.83201 11.47790 36785 ft 435 kts 164°
2026-05-06 19:34 50.79561 11.49935 36781 ft 435 kts 164°
2026-05-06 19:34 50.73931 11.53245 36779 ft 435 kts 163°
2026-05-06 19:35 50.70132 11.55474 36783 ft 434 kts 163°
2026-05-06 19:35 50.64609 11.58708 36783 ft 434 kts 163°
2026-05-06 19:36 50.58971 11.62001 36782 ft 434 kts 163°
2026-05-06 19:36 50.53299 11.65305 36791 ft 434 kts 163°
2026-05-06 19:37 50.47664 11.68580 36789 ft 434 kts 164°
2026-05-06 19:37 50.42942 11.71317 36796 ft 434 kts 164°
2026-05-06 19:38 50.39335 11.73403 36797 ft 434 kts 164°
2026-05-06 19:38 50.33653 11.76684 36800 ft 434 kts 164°
2026-05-06 19:39 50.30041 11.78766 36799 ft 434 kts 164°
2026-05-06 19:39 50.26405 11.80857 36801 ft 434 kts 164°
2026-05-06 19:40 50.20723 11.84120 36806 ft 434 kts 164°
2026-05-06 19:40 50.15040 11.87374 36800 ft 434 kts 164°
2026-05-06 19:41 50.11405 11.89450 36793 ft 434 kts 164°
2026-05-06 19:41 50.05718 11.92693 36794 ft 434 kts 164°
2026-05-06 19:42 50.00038 11.95923 36458 ft 432 kts 164°
2026-05-06 19:42 49.97253 11.97502 35980 ft 431 kts 164°
2026-05-06 19:42 49.94432 11.99096 35481 ft 430 kts 165°
2026-05-06 19:43 49.91621 12.00680 34994 ft 428 kts 165°
2026-05-06 19:43 49.88816 12.02256 34519 ft 426 kts 165°
2026-05-06 19:43 49.86048 12.03809 34043 ft 424 kts 166°
2026-05-06 19:43 49.83273 12.05363 33556 ft 423 kts 166°
2026-05-06 19:44 49.80539 12.06891 32998 ft 422 kts 166°
2026-05-06 19:44 49.77767 12.08437 32446 ft 423 kts 165°
2026-05-06 19:44 49.74993 12.09981 31977 ft 424 kts 165°
2026-05-06 19:44 49.72208 12.11530 31792 ft 426 kts 165°
2026-05-06 19:45 49.68654 12.13508 31595 ft 424 kts 165°
2026-05-06 19:45 49.65876 12.15057 31085 ft 424 kts 165°
2026-05-06 19:45 49.63085 12.16612 30580 ft 427 kts 165°
2026-05-06 19:46 49.60280 12.18168 30090 ft 429 kts 164°
2026-05-06 19:46 49.57461 12.19729 29542 ft 429 kts 164°
2026-05-06 19:46 49.54693 12.21262 28949 ft 427 kts 165°
2026-05-06 19:46 49.51904 12.22804 28394 ft 424 kts 164°
2026-05-06 19:47 49.50535 12.23562 28130 ft 423 kts 164°
2026-05-06 19:47 49.48335 12.24781 27695 ft 422 kts 163°
2026-05-06 19:47 49.45604 12.26295 27166 ft 420 kts 163°
2026-05-06 19:47 49.44257 12.27042 26912 ft 419 kts 163°
2026-05-06 19:48 49.42085 12.28245 26497 ft 418 kts 163°
2026-05-06 19:48 49.39365 12.29748 26020 ft 430 kts 163°
2026-05-06 19:48 49.36479 12.31323 25507 ft 443 kts 163°
2026-05-06 19:48 49.33547 12.32912 25041 ft 447 kts 163°
2026-05-06 19:49 49.30641 12.34488 24820 ft 448 kts 163°
2026-05-06 19:49 49.27694 12.36089 24789 ft 448 kts 162°
2026-05-06 19:49 49.24799 12.37670 24790 ft 446 kts 162°
2026-05-06 19:49 49.21869 12.39275 24791 ft 446 kts 162°
2026-05-06 19:50 49.18950 12.40877 24698 ft 444 kts 162°
2026-05-06 19:50 49.16033 12.42478 24473 ft 444 kts 162°
2026-05-06 19:50 49.13162 12.44052 24104 ft 443 kts 162°
2026-05-06 19:50 49.10245 12.45648 23704 ft 442 kts 163°
2026-05-06 19:51 49.07360 12.47223 23262 ft 439 kts 163°
2026-05-06 19:51 49.04518 12.48771 22759 ft 437 kts 162°
2026-05-06 19:51 49.01657 12.50328 22279 ft 436 kts 162°
2026-05-06 19:51 48.98806 12.51877 21806 ft 433 kts 162°
2026-05-06 19:52 48.95962 12.53421 21332 ft 431 kts 162°
2026-05-06 19:52 48.93146 12.54949 20864 ft 428 kts 162°
2026-05-06 19:52 48.90340 12.56470 20418 ft 426 kts 162°
2026-05-06 19:52 48.88027 12.57722 20037 ft 424 kts 162°
2026-05-06 19:53 48.85249 12.59225 19598 ft 422 kts 162°
2026-05-06 19:53 48.82490 12.60716 19168 ft 420 kts 162°
2026-05-06 19:53 48.79747 12.62195 18741 ft 416 kts 163°
2026-05-06 19:53 48.78520 12.62856 18549 ft 414 kts 163°
2026-05-06 19:54 48.76248 12.64080 18193 ft 411 kts 163°
2026-05-06 19:54 48.73595 12.65507 17726 ft 409 kts 163°
2026-05-06 19:54 48.70909 12.66917 17251 ft 405 kts 165°
2026-05-06 19:54 48.68190 12.67991 16774 ft 401 kts 170°
2026-05-06 19:55 48.66971 12.68373 16559 ft 399 kts 171°
2026-05-06 19:55 48.64688 12.68988 16178 ft 397 kts 173°
2026-05-06 19:55 48.61995 12.69627 15739 ft 393 kts 174°
2026-05-06 19:55 48.59282 12.70224 15271 ft 391 kts 174°
2026-05-06 19:56 48.56594 12.70765 14832 ft 388 kts 175°
2026-05-06 19:56 48.53973 12.71282 14316 ft 377 kts 175°
2026-05-06 19:56 48.52245 12.71632 13797 ft 365 kts 175°
2026-05-06 19:56 48.50282 12.72042 13113 ft 356 kts 175°
2026-05-06 19:57 48.47857 12.72563 12266 ft 351 kts 175°
2026-05-06 19:57 48.45453 12.73086 11416 ft 347 kts 175°
2026-05-06 19:57 48.43069 12.73603 10627 ft 344 kts 175°
2026-05-06 19:57 48.40698 12.74121 10094 ft 342 kts 174°
2026-05-06 19:58 48.38359 12.74804 9735 ft 341 kts 172°
2026-05-06 19:58 48.36024 12.75489 9221 ft 349 kts 173°
2026-05-06 19:58 48.33591 12.76206 8712 ft 369 kts 171°
2026-05-06 19:58 48.31067 12.77127 8201 ft 375 kts 169°
2026-05-06 19:59 48.28530 12.78136 7698 ft 376 kts 168°
2026-05-06 19:59 48.26849 12.78811 7375 ft 378 kts 168°
2026-05-06 19:59 48.25288 12.79437 7068 ft 377 kts 168°
2026-05-06 19:59 48.22789 12.80437 6591 ft 376 kts 169°
2026-05-06 20:00 48.20277 12.81441 6120 ft 375 kts 169°
2026-05-06 20:00 48.17742 12.82451 5596 ft 376 kts 169°
2026-05-06 20:00 48.15213 12.83420 5090 ft 374 kts 171°
2026-05-06 20:00 48.12681 12.84343 4596 ft 374 kts 171°
2026-05-06 20:01 48.10181 12.85246 4163 ft 373 kts 171°
2026-05-06 20:01 48.07676 12.86153 3986 ft 350 kts 171°
2026-05-06 20:01 48.05473 12.86982 3968 ft 311 kts 171°
2026-05-06 20:01 48.03493 12.87785 3970 ft 282 kts 171°
2026-05-06 20:02 48.01612 12.88439 3979 ft 275 kts 175°
2026-05-06 20:02 48.00371 12.88800 3993 ft 275 kts 175°
2026-05-06 20:02 47.99193 12.89136 3995 ft 276 kts 175°
2026-05-06 20:02 47.97345 12.89752 3984 ft 264 kts 173°
2026-05-06 20:03 47.95626 12.90398 3978 ft 244 kts 176°
2026-05-06 20:03 47.94032 12.91032 3978 ft 232 kts 166°
2026-05-06 20:03 47.92601 12.91956 4015 ft 212 kts 163°
2026-05-06 20:03 47.91289 12.92801 3860 ft 206 kts 166°
2026-05-06 20:04 47.89974 12.93618 3582 ft 204 kts 165°
2026-05-06 20:04 47.88664 12.94449 3279 ft 199 kts 165°
2026-05-06 20:04 47.87439 12.95236 3044 ft 182 kts 166°
2026-05-06 20:04 47.86312 12.95952 2789 ft 176 kts 165°
2026-05-06 20:05 47.85211 12.96653 2533 ft 169 kts 165°
2026-05-06 20:05 47.84144 12.97340 2296 ft 165 kts 162°
2026-05-06 20:05 47.83116 12.98041 2098 ft 158 kts 166°
2026-05-06 20:05 47.82115 12.98638 1875 ft 154 kts 159°
2026-05-06 20:06 47.81133 12.99261 1639 ft 153 kts 158°
2026-05-06 20:06 47.80165 12.99875 1442 ft 149 kts 158°
2026-05-06 20:06 47.79398 13.00352 1429 ft 69 kts 156°
2026-05-06 20:06 47.79043 13.00579 1424 ft 52 kts 157°
2026-05-06 20:07 47.78721 13.00781 1424 ft 48 kts 157°
2026-05-06 20:07 47.78576 13.00841 1423 ft 9 kts 208°
2026-05-06 20:07 47.78551 13.00789 1422 ft 4 kts 242°
2026-05-06 20:07 47.78546 13.00775 1423 ft 0 kts 243°
2026-05-06 20:08 47.78540 13.00751 1423 ft 12 kts 252°
2026-05-06 20:08 47.78605 13.00586 1425 ft 31 kts 339°
2026-05-06 20:08 47.78802 13.00465 1423 ft 31 kts 336°
2026-05-06 20:08 47.78944 13.00355 1424 ft 12 kts 297°
2026-05-06 20:09 47.78960 13.00174 1425 ft 22 kts 290°
2026-05-06 20:09 47.79032 13.00109 1425 ft 1 kts 25°
2026-05-06 20:09 47.79032 13.00119 1425 ft 3 kts 96°
2026-05-06 20:09 47.79019 13.00212 1425 ft 0 kts 102°